COSMOS 2251 DEB, 36000

Orbit data source: Space-Track

COSMOS 2251 DEB, 36000 is space debris in LEO originally from a launch on Wed, 16 Jun 1993 UTC launched from the Plesetsk Missile And Space Complex (PKMTR). The debris from Iridium 33, an American commercial communications satellite, has been tracked extensively since its accidental collision with the defunct Russian satellite Cosmos 2251 in 2009. This event, occurring at high speed in low Earth orbit (LEO), generated thousands of pieces of space debris, significantly increasing the risk of further collisions. The Iridium 33 debris cloud has impacted space traffic management and orbital debris mitigation strategies, making it a subject of ongoing study in space situational awareness.

Loading next visibility...
Identifier
36000, 1993-036AWS
Orbit
LEO
Country
Flag of CISCIS
Related business
Manufacturer
Unknown
Mission
Spacecraft
Bus & Motor
Unknown
Mass
Unknown
Launch date (UTC)
1993-06-16 (33 years ago)
Launch vehicle
Unknown
Launch site
Plesetsk Missile And Space Complex (PKMTR)
Object type
Payload
Rocket body
Debris
Shape & HBR
Unknown shape, 0.1 m
Radar Cross Section
Small (<0.1 m²)

Expand to show TLE details & history
Last TLE update: 3 weeks ago

TLE from 3 weeks ago
0 COSMOS 2251 DEB
1 36000U 93036AWS 26185.92193490  .00056609  00000-0  43042-2 0  9990
2 36000  73.9853  33.2824 0030392 102.0233 258.4363 15.01477293632232
Epoch: 2026-07-04T22:07Z
TLE epoch observation values (Epoch: 2026-07-04T22:07:35.175Z)
Latitude
-0.00006°
Longitude
138.45714°
Altitude
569.318 km
Speed
7.574 km/s
True Right ascension
02h 13m 07s
True Declination
0° 00' 00"
Sunlit
Object was in daylight at epoch
Visualization orbit readout
Latitude
Unknown
Longitude
Unknown
Altitude
Unknown
Speed
Unknown
Apparent Right ascension
Unknown
Apparent Declination
Unknown
Sunlit
N/A
Visualization observer readout
Local Sidereal Time
07:48:16
Azimuth
Unknown
Elevation
Unknown
Doppler factor
Unknown
Orbital elements
Apogee altitude
580.983 km
Perigee altitude
538.811 km
Semi-major axis
6,938.034 km
Eccentricity
0.00304
Inclination
73.9853°
RAAN
33.2824°
Arg. of periapsis
102.0233°
True anomaly
258.09536°
Mean anomaly
258.4363°
Eccentric anomaly
258.26581°
Mean motion
3.75568 °/min
Orbital period
95.85 mins
BSTAR
0.0043042

Documentation

Showing up to 5 results
|